When you browse on this site, cookies collect data to enhance your experience and personalize the content and advertising you see.
Visit our Privacy Policy to learn more. By continuing to use the site, you agree to this use of cookies and data.
  • In Spain
  • List of Countries
  • For 7 days
  • Water Temperature
  • Satellite Maps
  • Weather Map
  • Weather Widgets
  • user-avatar
    Login

    Hourly Weather Ar-Rakka

    Today, 17 February, Sunday

    Time Temperature Precipitation Wind Pressure Humidity
    00:00 +9°C° 0 mm 1 mps 742 mmHg 74%
    01:00 +9°C° 0 mm 1 mps 742 mmHg 74%
    02:00 +9°C° 0 mm 1 mps 742 mmHg 74%
    03:00 +9°C° 0 mm 1 mps 742 mmHg 74%
    04:00 +8°C° 0 mm 2 mps 742 mmHg 76%
    05:00 +7°C° 0 mm 2 mps 742 mmHg 77%
    06:00 +7°C° 0 mm 2 mps 742 mmHg 79%
    07:00 +8°C° 0 mm 2 mps 742 mmHg 77%
    08:00 +9°C° 0 mm 2 mps 742 mmHg 75%
    09:00 +9°C° 0 mm 3 mps 742 mmHg 73%
    10:00 +10°C° 0 mm 3 mps 742 mmHg 68%
    11:00 +12°C° 0 mm 3 mps 743 mmHg 62%
    12:00 +13°C° 0 mm 4 mps 743 mmHg 56%
    13:00 +13°C° 0.1 mm 4 mps 742 mmHg 54%
    14:00 +14°C° 0.1 mm 4 mps 742 mmHg 52%
    15:00 +14°C° 0.1 mm 4 mps 741 mmHg 50%
    16:00 +14°C° 0.1 mm 4 mps 741 mmHg 53%
    17:00 +13°C° 0.1 mm 3 mps 741 mmHg 56%
    18:00 +13°C° 0.1 mm 3 mps 741 mmHg 59%
    19:00 +12°C° 0.1 mm 3 mps 741 mmHg 63%
    20:00 +12°C° 0.1 mm 3 mps 741 mmHg 67%
    21:00 +11°C° 0.1 mm 3 mps 741 mmHg 71%
    22:00 +11°C° 0.1 mm 3 mps 741 mmHg 72%
    23:00 +10°C° 0.1 mm 3 mps 741 mmHg 74%

    Tomorrow, 18 February, Monday

    Time Temperature Precipitation Wind Pressure Humidity
    00:00 +10°C° 0.1 mm 3 mps 741 mmHg 75%
    01:00 +10°C° 0 mm 3 mps 741 mmHg 77%
    02:00 +9°C° 0 mm 3 mps 741 mmHg 79%
    03:00 +9°C° 0 mm 3 mps 741 mmHg 81%
    04:00 +8°C° 0 mm 3 mps 741 mmHg 83%
    05:00 +8°C° 0 mm 3 mps 741 mmHg 84%
    06:00 +8°C° 0 mm 3 mps 740 mmHg 85%
    07:00 +8°C° 0 mm 3 mps 741 mmHg 83%
    08:00 +9°C° 0 mm 3 mps 741 mmHg 80%
    09:00 +9°C° 0 mm 3 mps 741 mmHg 78%
    10:00 +10°C° 0 mm 3 mps 741 mmHg 71%
    11:00 +12°C° 0 mm 3 mps 741 mmHg 64%
    12:00 +13°C° 0 mm 3 mps 741 mmHg 57%
    13:00 +13°C° 0 mm 4 mps 740 mmHg 53%
    14:00 +14°C° 0 mm 4 mps 740 mmHg 50%
    15:00 +15°C° 0 mm 4 mps 739 mmHg 46%
    16:00 +14°C° 0 mm 4 mps 739 mmHg 47%
    17:00 +14°C° 0 mm 4 mps 739 mmHg 49%
    18:00 +13°C° 0 mm 3 mps 739 mmHg 50%
    19:00 +13°C° 0 mm 3 mps 739 mmHg 53%
    20:00 +12°C° 0 mm 3 mps 739 mmHg 56%
    21:00 +12°C° 0 mm 3 mps 739 mmHg 58%
    22:00 +11°C° 0 mm 3 mps 739 mmHg 61%
    23:00 +11°C° 0 mm 4 mps 739 mmHg 65%

    Day after tomorrow, 19 February, Tuesday

    Time Temperature Precipitation Wind Pressure Humidity
    00:00 +10°C° 0 mm 4 mps 739 mmHg 68%
    01:00 +9°C° 0 mm 5 mps 739 mmHg 70%
    02:00 +8°C° 0 mm 5 mps 739 mmHg 73%
    03:00 +8°C° 0 mm 5 mps 739 mmHg 76%
    04:00 +8°C° 0 mm 5 mps 739 mmHg 75%
    05:00 +7°C° 0 mm 5 mps 739 mmHg 75%
    06:00 +7°C° 0 mm 5 mps 739 mmHg 74%
    07:00 +8°C° 0 mm 5 mps 739 mmHg 71%
    08:00 +8°C° 0 mm 5 mps 740 mmHg 68%
    09:00 +9°C° 0 mm 6 mps 740 mmHg 64%
    10:00 +10°C° 0 mm 6 mps 740 mmHg 58%
    11:00 +13°C° 0 mm 6 mps 740 mmHg 51%
    12:00 +14°C° 0 mm 6 mps 740 mmHg 44%
    13:00 +15°C° 0 mm 6 mps 740 mmHg 41%
    14:00 +16°C° 0 mm 6 mps 740 mmHg 38%
    15:00 +17°C° 0 mm 6 mps 740 mmHg 34%
    16:00 +16°C° 0 mm 6 mps 740 mmHg 39%
    17:00 +16°C° 0 mm 5 mps 740 mmHg 43%
    18:00 +15°C° 0 mm 5 mps 740 mmHg 47%
    19:00 +14°C° 0 mm 6 mps 740 mmHg 54%
    20:00 +14°C° 0 mm 6 mps 741 mmHg 61%
    21:00 +12°C° 0 mm 7 mps 741 mmHg 68%
    22:00 +11°C° 0 mm 7 mps 741 mmHg 71%
    23:00 +11°C° 0 mm 6 mps 741 mmHg 73%

    20 February, Wednesday

    Time Temperature Precipitation Wind Pressure Humidity
    00:00 +10°C° 0 mm 6 mps 742 mmHg 76%
    01:00 +10°C° 0 mm 5 mps 742 mmHg 76%
    02:00 +10°C° 0 mm 4 mps 742 mmHg 77%
    03:00 +10°C° 0 mm 4 mps 742 mmHg 78%
    04:00 +9°C° 0 mm 3 mps 742 mmHg 77%
    05:00 +9°C° 0 mm 3 mps 742 mmHg 76%
    06:00 +9°C° 0 mm 3 mps 742 mmHg 75%
    07:00 +9°C° 0 mm 3 mps 743 mmHg 71%
    08:00 +10°C° 0 mm 2 mps 743 mmHg 66%
    09:00 +10°C° 0 mm 2 mps 744 mmHg 62%
    10:00 +12°C° 0 mm 2 mps 744 mmHg 56%
    11:00 +14°C° 0 mm 2 mps 744 mmHg 50%
    12:00 +15°C° 0 mm 2 mps 744 mmHg 44%
    13:00 +15°C° 0 mm 2 mps 744 mmHg 42%
    14:00 +16°C° 0 mm 2 mps 743 mmHg 41%
    15:00 +17°C° 0 mm 2 mps 743 mmHg 40%
    16:00 +16°C° 0 mm 2 mps 743 mmHg 42%
    17:00 +16°C° 0 mm 2 mps 743 mmHg 44%
    18:00 +16°C° 0 mm 1 mps 743 mmHg 46%
    19:00 +15°C° 0 mm 1 mps 743 mmHg 49%
    20:00 +14°C° 0 mm 1 mps 743 mmHg 52%
    21:00 +13°C° 0 mm 0 mps 743 mmHg 55%
    22:00 +12°C° 0 mm 0 mps 743 mmHg 56%
    23:00 +13°C° 0 mm 1 mps 743 mmHg 57%

    21 February, Thursday

    Time Temperature Precipitation Wind Pressure Humidity
    00:00 +13°C° 0 mm 1 mps 743 mmHg 57%
    01:00 +12°C° 0 mm 1 mps 743 mmHg 61%
    02:00 +12°C° 0 mm 2 mps 743 mmHg 65%
    03:00 +11°C° 0 mm 3 mps 743 mmHg 69%
    04:00 +10°C° 0 mm 3 mps 742 mmHg 72%
    05:00 +10°C° 0 mm 2 mps 742 mmHg 74%
    06:00 +9°C° 0 mm 2 mps 742 mmHg 77%
    07:00 +10°C° 0 mm 2 mps 743 mmHg 74%
    08:00 +10°C° 0 mm 2 mps 743 mmHg 72%
    09:00 +12°C° 0 mm 2 mps 743 mmHg 70%
    10:00 +12°C° 0 mm 3 mps 743 mmHg 64%
    11:00 +13°C° 0 mm 3 mps 743 mmHg 59%
    12:00 +14°C° 0 mm 3 mps 743 mmHg 53%
    13:00 +16°C° 0 mm 3 mps 743 mmHg 50%
    14:00 +16°C° 0 mm 3 mps 742 mmHg 47%
    15:00 +17°C° 0 mm 3 mps 741 mmHg 44%
    16:00 +17°C° 0 mm 2 mps 741 mmHg 45%
    17:00 +16°C° 0 mm 2 mps 741 mmHg 45%
    18:00 +16°C° 0 mm 2 mps 741 mmHg 46%
    19:00 +16°C° 0 mm 2 mps 742 mmHg 49%
    20:00 +15°C° 0 mm 2 mps 742 mmHg 52%
    21:00 +14°C° 0 mm 2 mps 742 mmHg 54%
    22:00 +14°C° 0 mm 2 mps 742 mmHg 57%
    23:00 +14°C° 0 mm 2 mps 742 mmHg 59%

    22 February, Friday

    Time Temperature Precipitation Wind Pressure Humidity
    00:00 +12°C° 0 mm 3 mps 742 mmHg 62%
    01:00 +12°C° 0 mm 3 mps 742 mmHg 68%
    02:00 +11°C° 0 mm 3 mps 742 mmHg 73%
    03:00 +11°C° 0 mm 3 mps 742 mmHg 78%
    04:00 +10°C° 0 mm 3 mps 742 mmHg 81%
    05:00 +10°C° 0 mm 3 mps 742 mmHg 83%
    06:00 +9°C° 0 mm 2 mps 742 mmHg 86%
    07:00 +10°C° 0 mm 3 mps 742 mmHg 83%
    08:00 +10°C° 0 mm 3 mps 743 mmHg 80%
    09:00 +11°C° 0 mm 3 mps 743 mmHg 78%
    10:00 +12°C° 0 mm 3 mps 743 mmHg 70%
    11:00 +13°C° 0 mm 3 mps 743 mmHg 62%
    12:00 +14°C° 0 mm 3 mps 743 mmHg 54%
    13:00 +16°C° 0 mm 3 mps 742 mmHg 50%
    14:00 +16°C° 0 mm 3 mps 742 mmHg 45%
    15:00 +17°C° 0 mm 3 mps 741 mmHg 41%
    16:00 +17°C° 0 mm 3 mps 741 mmHg 42%
    17:00 +16°C° 0 mm 2 mps 741 mmHg 42%
    18:00 +16°C° 0 mm 2 mps 741 mmHg 43%
    19:00 +15°C° 0 mm 1 mps 741 mmHg 46%
    20:00 +15°C° 0 mm 1 mps 741 mmHg 49%
    21:00 +14°C° 0 mm 1 mps 741 mmHg 52%
    22:00 +14°C° 0 mm 1 mps 741 mmHg 52%
    23:00 +13°C° 0 mm 1 mps 741 mmHg 51%
    Show more